Overview Statistics Trail Chart Weather Telemetry Raw packets
 

This is the latest recevied weather packets stored in our database for station/object SV3AQT-13. If no packets are shown the sender has not sent any weather packets the latest 10 day(s).

<< 23 24 25 26 27 28 29 >>
Time Temp. Humidity Pressure Rain* Wind** Luminosity Snow
1788502062 28.33° C 67% 1017.2 hPa 0 mm 0.45 m/s, 71° - -
1788501883 28.33° C 68% 1017.2 hPa 0 mm 0 m/s - -
1788501705 28.33° C 67% 1017.2 hPa 0 mm 0.89 m/s, 73° - -
1788501523 28.33° C 68% 1017.2 hPa 0 mm 0.89 m/s, 77° - -
1788501343 28.33° C 70% 1017.2 hPa 0 mm 0 m/s - -
1788501162 28.33° C 70% 1017.2 hPa 0 mm 0 m/s - -
1788500982 28.33° C 66% 1017.2 hPa 0 mm 0.45 m/s, 73° - -
1788500802 28.33° C 68% 1017.2 hPa 0 mm 0 m/s - -
1788500622 28.33° C 65% 1017.2 hPa 0 mm 0 m/s - -
1788500442 27.78° C 67% 1017.2 hPa 0 mm 0 m/s - -
1788500262 27.78° C 70% 1017.2 hPa 0 mm 0 m/s - -
1788500083 26.67° C 70% 1017.2 hPa 0 mm 0 m/s - -
1788499902 26.67° C 74% 1017.2 hPa 0 mm 0 m/s - -
1788499723 26.11° C 75% 1017.2 hPa 0 mm 0 m/s - -
1788499543 25.56° C 74% 1017.2 hPa 0 mm 0 m/s - -
1788499363 25.56° C 75% 1017.2 hPa 0 mm 0 m/s - -
1788499183 24.44° C 78% 1017.2 hPa 0 mm 0 m/s - -
1788499003 23.89° C 78% 1017.2 hPa 0 mm 0 m/s - -
1788498822 23.33° C 78% 1017.2 hPa 0 mm 0 m/s - -
1788498642 23.33° C 80% 1017.2 hPa 0 mm 0 m/s - -
1788498463 22.78° C 80% 1017.2 hPa 0 mm 0 m/s - -
1788498305 22.22° C 80% 1017.2 hPa 0 mm 0 m/s - -
1788498107 22.22° C 81% 1017.2 hPa 0 mm 0 m/s - -
1788497987 21.67° C 81% 1017.2 hPa 0 mm 0 m/s - -
1788497790 21.67° C 81% 1017.2 hPa 0 mm 0 m/s - -

* Rain latest hour (hover to see other rain measurements)
** Current wind speed in m/s (hover to see current wind gust speed)